Location: Dodge City Community College Clyde Tombaugh Astronomy Center
(37.7756°N, 100.0412°W)
Time: 04:16:36
(UTC+00:00)

Daily predictions for brighter satellites

Satellite Brightness Start Highest point End
(mag) Time Altitude Azimuth Time Altitude Azimuth Time Altitude Azimuth
Okean 2 3.5 00:59:54 10° N 01:03:59 54° E 01:08:02 10° SSE
Cosmos 1378 Rocket 4.2 01:01:40 10° NNW 01:05:55 61° W 01:10:09 10° S
Cosmos 1842 3.3 01:04:58 10° N 01:08:47 56° E 01:12:36 10° SSE
CZ-4 R/B 1.4 01:08:53 10° SSE 01:13:04 72° ENE 01:17:17 10° N
Okean 2 Rocket 3.9 01:12:59 10° SSE 01:16:54 30° E 01:20:48 10° NNE
USA 116 3.6 01:13:48 10° NNE 01:17:25 63° ESE 01:21:27 10° S
Cosmos 1707 3.8 01:15:39 10° NNE 01:18:51 25° ENE 01:22:01 10° SE
Cosmos 1300 Rocket 4.3 01:15:44 10° SSE 01:19:34 31° E 01:23:27 10° NNE
Ariane Rocket 4.5 01:16:49 10° ESE 01:20:07 18° ENE 01:23:27 10° NNE
DELTA 2 R/B (1) 3.7 01:18:30 10° WNW 01:24:02 72° SSW 01:29:07 12° ESE
Okean-O 3.1 01:23:05 10° S 01:27:29 66° WSW 01:31:54 10° NNW
ARGOS 3.7 01:23:20 10° SE 01:28:11 37° ENE 01:33:04 10° N
YAOGAN 1 2.6 01:24:37 10° SSE 01:28:56 90° E 01:33:17 10° NNW
Cosmos 1437 2.7 01:29:57 10° NNW 01:32:56 73° W 01:35:53 10° S
CZ-2C R/B 3.1 01:30:51 10° SSE 01:36:00 77° ENE 01:41:31 10° N
CZ-2C R/B 3.5 01:31:18 10° NE 01:36:06 29° E 01:40:55 10° SSE
Cosmos 2298 Rocket 4.2 01:31:53 10° S 01:37:01 52° ESE 01:42:11 10° NNE
Cosmos 1513 Rocket 4.4 01:36:43 10° S 01:42:57 68° E 01:49:06 10° NNE
USA 186 3.1 01:43:19 21° ENE 01:43:19 21° ENE 01:45:44 10° NNE
MOS 1 Rocket 3.0 01:39:16 10° NNE 01:43:38 69° E 01:47:53 10° S
Cosmos 372 Rocket 4.0 01:40:42 10° SSW 01:45:56 85° WNW 01:51:12 10° NNE
Cosmos 1025 Rocket 3.4 01:44:31 10° N 01:48:42 42° E 01:51:49 16° SE
Cosmos 2263 Rocket 4.2 01:44:44 10° WSW 01:49:33 30° WNW 01:54:25 10° N
Cosmos 1844 4.0 01:45:34 10° S 01:50:57 44° ESE 01:56:18 10° NE
ISS -1.5 01:49:34 10° W 01:52:20 23° NNW 01:55:07 10° NNE
Cosmos 1464 Rocket 3.9 01:46:58 10° S 01:53:03 79° E 01:59:13 10° N
Cosmos 1844 Rocket 2.6 01:50:01 10° S 01:55:29 62° ESE 02:01:00 10° NNE
Cosmos 1867 3.5 01:52:24 10° NNW 01:57:53 77° ENE 02:01:45 20° SE
Cosmos 2151 Rocket 3.5 01:54:11 10° S 01:58:33 63° E 02:02:59 10° NNE
Cosmos 2150 Rocket 4.0 02:00:47 10° SSW 02:06:08 89° ESE 02:11:36 10° NNE
CZ-2C R/B 1.2 02:03:01 10° W 02:06:32 51° S 02:07:04 45° SSE
Cosmos 1125 Rocket 3.4 02:05:03 10° S 02:10:15 63° ESE 02:15:31 10° NNE
USA 234 3.4 02:05:14 10° NE 02:11:35 51° SE 02:17:54 10° SSW
Milstar 3 Cent rocket 3.3 02:07:19 10° SW 02:12:59 26° S 02:14:14 24° SSE
MOS 1 4.5 02:10:42 29° SE 02:13:20 50° ENE 02:18:49 10° N
Longmarch 3A Rocket 3.6 02:11:58 10° SSW 02:12:56 16° S 02:12:56 16° S
DMSP B5D2-2 4.0 02:13:29 10° NNE 02:18:43 61° E 02:23:55 10° S
BREEZE-M DEB (TANK) 3.5 02:18:14 10° NW 02:19:17 27° NW 02:19:17 27° NW
NOSS 3-2 (C) 4.5 02:19:41 10° NNW 02:27:01 46° NE 02:29:49 35° E
NOSS 3-4 (A) 3.4 02:21:38 10° S 02:27:15 50° ESE 02:30:10 28° NE
NOSS 3-4 (C) 3.4 02:21:46 10° S 02:27:22 50° ESE 02:29:46 32° ENE
Cosmos 1674 3.6 02:26:16 10° N 02:28:51 38° NNE 02:28:51 38° NNE
Cosmos 468 4.4 02:26:21 10° NNW 02:31:42 80° ENE 02:33:12 48° SSE
Resurs 01 Rocket 3.5 02:36:49 18° NNE 02:36:49 18° NNE 02:38:22 10° NNE
Meteor 1-15 Rocket 4.2 02:29:46 10° S 02:35:22 85° W 02:41:06 10° N
H-2A R/B 4.0 02:33:41 10° SW 02:33:48 11° SW 02:33:48 11° SW
Exosat Rocket 3.6 02:31:29 10° SSW 02:37:28 81° WNW 02:42:30 10° NNE
H-2A R/B 3.5 02:33:43 10° SSW 02:38:11 34° W 02:42:44 10° NNW
IRS-1A Rocket 4.4 02:38:36 28° S 02:41:50 81° WSW 02:47:44 10° NNW
Cosmos 1048 Rocket 4.0 02:36:54 10° NNW 02:42:15 86° WSW 02:43:26 56° SSE
Nadezhda 4 Rocket 4.2 02:42:05 10° NNW 02:48:09 68° W 02:52:33 19° S
ATLAS 2AS CENTAUR R/B 2.9 02:41:54 10° SSW 02:49:42 70° ESE 02:57:36 10° NE
BREEZE-M DEB (TANK) 3.6 02:47:58 10° NW 02:51:54 85° NE 02:54:11 50° ESE
Okean 1 Rocket 3.4 02:53:23 65° NW 02:53:23 65° NW 02:57:29 10° N
OBJECT-B 3.8 02:56:30 12° N 02:56:30 12° N 02:56:44 10° N
Ariane Rocket 3.7 02:56:56 36° SSW 02:58:38 51° W 03:03:35 10° NNW
CENTAUR R/B 3.2 02:51:23 10° NNW 02:59:37 67° NE 03:01:27 55° ESE
Cosmos 2082 Rocket 4.4 03:04:18 10° NNE 03:05:22 13° NNE 03:05:22 13° NNE
Cosmos 494 Rocket 4.2 03:02:13 10° NNW 03:06:52 68° NW 03:06:52 68° NW
ATLAS 3B R/B 3.9 03:01:52 10° NNW 03:07:18 27° NE 03:07:18 27° NE
Meteor 2-5 Rocket 3.8 03:05:09 10° N 03:10:22 76° NNW 03:10:22 76° NNW
Meteor 1-22 Rocket 4.4 03:14:29 72° NNW 03:14:29 72° NNW 03:19:54 10° N
USA 238 DEB 3.9 03:08:14 10° NW 03:15:31 72° WSW 03:16:46 61° S
USA 238 3.9 03:08:20 10° NW 03:15:38 73° WSW 03:16:50 62° S
CZ-2C R/B 4.2 03:11:22 10° N 03:16:21 35° WNW 03:21:21 10° SW
Cosmos 1634 Rocket 4.2 03:21:52 55° SW 03:22:56 64° W 03:29:05 10° N
SPOT 3 Rocket 4.4 03:25:35 45° NW 03:25:35 45° NW 03:29:14 10° NNW
Meteor 1-24 Rocket 4.4 03:22:46 10° NNW 03:26:44 48° NNW 03:26:44 48° NNW
USA 234 4.1 03:52:10 33° NNE 03:54:29 46° NW 04:00:39 10° WSW
Cosmos 1980 Rocket 4.2 08:52:47 24° NE 08:52:47 24° NE 08:55:16 10° NE
ADEOS II 4.3 09:07:37 10° N 09:09:06 19° N 09:09:06 19° N
ARIANE 5 R/B 4.4 09:10:26 10° NNE 09:12:41 25° NE 09:12:41 25° NE
IDEFIX/ARIANE 42P 4.0 09:16:39 10° NNE 09:20:03 34° NE 09:20:03 34° NE
SJ 16-02 4.3 09:26:10 10° NNE 09:28:42 15° ENE 09:31:15 10° E
BREEZE-M DEB (TANK) 3.9 09:39:27 80° SSW 09:39:50 84° SSE 09:58:50 10° ENE
Lacrosse 5 3.7 09:45:25 22° N 09:45:25 22° N 09:47:57 10° NNE
X-37B 4.2 09:51:10 11° NE 09:51:10 11° NE 09:51:20 10° NE
NOSS 3-3 (A) 3.7 10:06:31 76° NW 10:06:31 76° NW 10:12:47 10° NNE
NOSS 3-3 (C) 3.7 10:06:41 76° NW 10:06:41 76° NW 10:12:52 10° NNE
USA 267 3.8 10:02:55 10° NNE 10:08:55 41° NNW 10:09:48 39° NW
Cosmos 1339 Rocket 4.4 10:14:20 52° SSW 10:16:02 84° W 10:22:16 10° N
Spot 4 Rocket 4.3 10:11:23 10° N 10:15:35 52° NNW 10:15:35 52° NNW
Cosmos 921 Rocket 3.9 10:20:07 38° N 10:20:07 38° N 10:22:49 10° N
Meteor 2-7 Rocket 4.5 10:20:03 70° SW 10:20:34 77° W 10:26:04 10° N
Cosmos 1812 3.7 10:21:50 41° NNE 10:21:50 41° NNE 10:24:27 10° N
Cosmos 2360 Rocket 4.0 10:19:19 10° SSE 10:24:02 28° ESE 10:28:47 10° NE
ADEOS Rocket 4.3 10:21:43 10° SE 10:28:12 45° ENE 10:34:05 10° N
MSX 3.8 10:23:15 10° N 10:28:58 64° WNW 10:30:08 52° SW
Cosmos 1707 Rocket 4.4 10:26:34 20° SSE 10:29:21 49° E 10:33:32 10° NNE
Cosmos 1666 4.3 10:26:04 10° NNE 10:29:34 34° ENE 10:33:02 10° SE
Timation 1 Rocket 4.3 10:25:53 10° NNW 10:31:43 54° WSW 10:37:32 10° S
Cosmos 1980 Rocket 3.3 10:34:34 28° NW 10:34:34 28° NW 10:38:55 10° N
IRIDIUM 114 4.3 10:33:45 10° N 10:39:00 87° E 10:44:13 10° S
Cosmos 2322 Rocket 2.3 10:37:25 25° SSW 10:40:47 78° ESE 10:46:30 10° NNE
USA 234 3.4 10:34:53 10° SE 10:41:23 75° NE 10:47:54 10° NW
FALCON 9 DEB 3.4 10:43:18 60° N 10:43:18 60° N 10:46:20 10° NE
Cosmos 2263 Rocket 2.1 10:38:50 10° NNW 10:44:31 88° WSW 10:50:12 10° SSE
SL-4 R/B 2.2 10:43:55 57° WSW 10:44:47 77° NW 10:49:33 10° NE
USA 32 4.5 10:39:35 10° N 10:44:48 63° E 10:49:59 10° SSE
Cosmos 2228 Rocket 4.1 10:47:14 29° NW 10:47:14 29° NW 10:50:04 10° NNW
IRIDIUM 103 4.2 10:42:55 10° N 10:48:08 77° W 10:53:20 10° S
Meteor 1-4 Rocket 3.1 10:50:45 41° NW 10:50:45 41° NW 10:53:24 10° N
SL-16 R/B 2.1 10:47:26 32° SW 10:50:08 71° WNW 10:55:49 10° NNE
ARIANE 5 R/B 4.2 10:50:43 10° NNW 10:53:01 17° NW 10:53:01 17° NW
Cosmos 44 Rocket 3.7 10:51:43 17° S 10:55:09 58° ESE 10:59:52 10° NE
ERBS 4.2 10:55:42 19° NNW 10:55:42 19° NNW 10:57:48 10° NNE
Cosmos 841 Rocket 3.9 10:50:53 10° S 10:56:00 63° ESE 11:01:12 10° NNE
ADEOS 4.1 10:51:32 10° NNE 10:56:42 60° ESE 11:01:50 10° S
Cosmos 1869 Rocket 3.6 10:53:36 10° NNW 10:57:49 51° W 11:01:59 10° S
CZ-2C R/B 4.4 10:55:21 10° NNW 10:57:08 20° NW 10:57:08 20° NW
CZ-2C R/B 2.5 10:54:39 10° N 10:59:46 68° WNW 11:04:21 13° SSW
IDEFIX/ARIANE 42P 3.9 10:57:02 10° NNW 11:00:51 21° WNW 11:00:51 21° WNW
Cosmos 1862 Rocket 4.2 10:59:14 10° S 11:03:32 56° E 11:07:49 10° NNE
Cosmos 2227 4.2 10:58:22 10° NNW 11:03:52 55° WSW 11:09:20 10° S
Cosmos 2173 Rocket 4.5 10:57:38 10° N 11:03:57 66° E 11:10:16 10° SSE
Cosmos 1763 Rocket 3.7 11:01:39 26° SW 11:04:28 53° WNW 11:09:41 10° N
SJ-6F 4.4 11:02:13 10° NNE 11:06:20 82° ESE 11:10:24 10° S
IRIDIUM 106 4.4 11:01:22 10° NNW 11:06:25 50° W 11:11:25 10° SSW
CZ-4B R/B 2.1 11:04:06 10° SSE 11:07:08 51° ENE 11:10:16 10° N
SJ 16-02 1.5 11:03:19 10° NNW 11:07:32 45° WSW 11:11:42 10° S
PSLV R/B 3.8 11:05:50 10° N 11:09:48 42° WNW 11:11:41 26° SW
H-2A R/B 2.6 11:07:31 10° SSW 11:11:31 36° W 11:15:37 10° NNW
Cosmos 2219 Rocket 4.4 11:09:51 10° SSE 11:14:25 26° ESE 11:19:01 10° NE
Cosmos 1570 Rocket 4.0 11:13:19 10° SSW 11:18:38 81° WNW 11:24:00 10° NNE
Landsat 5 4.5 11:17:45 10° SSW 11:21:37 28° W 11:25:29 10° NW
ERS-2 2.4 11:18:35 10° S 11:22:03 42° W 11:25:34 10° NNW
X-37B 1.7 11:23:27 14° NW 11:25:57 40° NNE 11:28:58 10° E
Okean 1 4.3 11:22:29 10° S 11:26:24 51° E 11:30:21 10° NNE
Intercosmos 25 3.5 11:24:22 10° S 11:29:02 75° E 11:32:26 10° N
CZ-4B R/B 3.9 11:26:49 10° NNE 11:30:18 43° E 11:33:42 10° S
Cosmos 2333 Rocket 3.7 11:25:29 10° S 11:30:49 40° ESE 11:36:10 10° NE
Cosmos 540 Rocket 3.5 11:25:53 10° SSW 11:30:58 60° WNW 11:36:06 10° N
Cosmos 990 Rocket 4.3 11:26:32 10° NNW 11:31:27 44° WSW 11:36:22 10° S
BREEZE M DEB (TANK) 3.1 11:21:57 10° NW 11:31:52 66° SW 11:35:12 10° SE
CZ-4B R/B 4.1 11:27:49 10° NNE 11:32:13 89° WNW 11:36:41 10° SSW
Cosmos 1000 Rocket 4.5 11:28:15 10° SSW 11:34:22 62° W 11:40:28 10° N
Cosmos 2016 Rocket 4.2 11:28:35 10° N 11:34:42 76° E 11:40:47 10° S
Meteor 2-20 4.4 11:29:37 10° S 11:35:45 78° W 11:41:53 10° N
Cosmos 1484 Rocket 2.8 11:31:49 10° N 11:35:46 64° WNW 11:39:43 10° SSW
COSMO-SKYMED 1 3.7 11:34:25 10° SSE 11:38:34 48° ENE 11:42:46 10° N
ALOS 2.2 11:34:06 10° N 11:38:45 69° WNW 11:43:21 10° SSW
Cosmos 2322 4.2 11:33:35 10° S 11:39:09 64° ESE 11:44:45 10° NNE
Cosmos 1536 3.4 11:39:48 10° NNW 11:43:32 35° W 11:47:14 10° SSW
Meteor 1-31 Rocket 2.8 11:43:34 10° N 11:47:20 55° WNW 11:51:05 10° SSW
Cosmos 1437 Rocket 2.6 11:44:17 10° SSW 11:48:02 68° W 11:51:50 10° N
Cosmos 1544 3.6 11:47:30 10° N 11:51:05 62° E 11:54:36 10° SSE
PSLV R/B 4.2 11:48:33 10° SSE 11:52:35 75° ENE 11:56:39 10° N
